Weather in Zavetnoye

Russia / Primorsky Krai     44°42′33″N   134°41′50″E
temp.,
°C
wind,
m/s
gust,
m/s
humid.,
%
clouds,
%
prec.,
mm/h
press.,
hPa
HPBL,
m
8 may, sat
sat801:00+6se249198 0.6 990141
04:00+6s2492100 1.1 990547
07:00+7sw1792100 0.5 992693
10:00+7wsw4996100 1.9 9951003
13:00+9wsw3787100 0.4 997781
16:00+13sw385887 0.5 9951671
19:00+10ese237889 0.2 99592
22:00+9se3869100 0.2 995382
9 may, sun
sun901:00+7ese31375100 0.0 993729
04:00+5ese51392100 2.1 993845
07:00+4se31191100 1.3 993856
10:00+6ese2588100 1.3 993658
13:00+6e1386100 0.1 995565
16:00+7ene1280100 0.1 996599
19:00+5ne1387100 0.1 998506
22:00+3n1397100 0.4 1002365
10 may, mon
mon1001:00+3nnw1395100 0.0 1003303
04:00+3wsw1195100 0.1 100581
07:00+4w1296100 0.0 1007128
10:00+6wnw2694100 0.1 1007941
13:00+6wnw3692100 0.4 1009796
16:00+5wnw2695100 0.8 1010823
19:00+4wnw2697100 0.3 1011652
22:00+4wnw1499100 0.4 1014367
11 may, tue
tue1101:00+4w139999 0.1 1015212
04:00+4w129995 0.1 1015143
07:00+4nw129699 0.0 1017209
10:00+6nnw1379100 0.0 1018896
13:00+9wnw1360100 0.0 10171364
16:00+11w235464 0.1 10171392
19:00+10wsw1165100 0.1 101721
22:00+7sse2379100 0.1 101976
12 may, wed
wed1201:00+3se239821 0.0 102169
04:00+3se239644 0.0 1021120
07:00+5se2484100 0.0 1020394
10:00+10sse3562100 0.0 1018638
13:00+11sse4660100 0.0 1017771
16:00+11sse4661100 0.1 10151036
19:00+9se387099 0.0 1015738
22:00+5se2793100 1.2 1017353